Location: Mainz-Finthen
(49.9906°N, 8.1713°E)
Time: 08:51:46
(UTC+00:00)

N. Korean satellite - Pass Details

Date: 04 December 2022
Orbit: 407 x 444 km, 97.3° (Epoch: 28 January)

Event Time Altitude Azimuth Distance (km) Brightness Sun altitude
Rises 17:09:23 0° 219° (SW) 2,462 11.1 -15.6°
Reaches altitude 10° 17:13:06 10° 261° (W) 1,612 10.5 -16.2°
Maximum altitude 17:13:46 10° 273° (W) 1,590 10.3 -16.3°
Drops below altitude 10° 17:14:26 10° 284° (WNW) 1,620 10.2 -16.4°
Sets 17:18:14 0° 326° (NNW) 2,515 10.4 -17.0°
